GFSSGP_prec_radar_078.txt.gz
Reflectivity
-11 16 -19 -20 -20 -20 -20 -20 -20 -20 -20 -20 -20 -20 -20 -20 -20 -20 -20 -20 -20 -20 -7 -20 -20 -20 -20 -20 -20 -20 -20 -20 -4 2 13 -20 -20 -20 -20 -20 -20 -19 -20 -19 -20 -20 -20 -20 -20
-4 -8 13 -17 -20 -20 -20 -20 -20 -20 -20 -20 -20 -20 -20 -20 -20 -20 -20 -20 -20 -20 -20 -20 -20 -20 -20 -20 -20 -20 -20 -0 -20 8 12 -20 -17 -19 -20 -20 -20 -5 14 -20 -20 -20 -20 -20 -20
16 9 21 13 -20 -20 -20 -20 -20 -20 -20 -20 -20 -20 -20 -20 -20 -20 -12 -20 -20 -20 -20 -20 -20 -20 1 -20 -20 -20 -6 -20 -20 11 15 17 -2 -20 -20 -20 -20 -20 9 -20 -20 -20 -20 -20 -20
22 26 10 12 -18 -20 -20 -20 -18 -20 -20 -20 -20 -20 -20 -20 -20 -20 -20 -20 -20 -20 -20 -20 -20 -20 -20 -20 -20 1 11 -20 -20 -20 -2 17 7 -20 -20 -20 -20 -20 -19 -20 -20 -20 -20 -20 -20
-4 16 19 -12 -20 -19 -20 -20 4 -17 -20 -20 -20 -20 -20 -20 -20 -20 -20 -20 -20 -20 -20 -20 -20 -20 -20 -11 -12 -20 -20 -20 -20 -20 -20 -16 -18 -20 9 -20 -20 -1 -20 -8 -20 -20 -20 -20 -20
-13 -17 21 -9 -7 -20 -18 -20 -10 -20 -20 -20 -20 -20 -20 -20 -20 -20 -20 -20 -20 -20 -20 -20 -19 -20 -20 -20 -3 -20 -20 -20 -20 -20 -20 -20 -14 12 -1 -20 -20 -19 -20 -16 -20 -20 -20 -20 -20
-20 -20 -20 -20 -20 -20 5 9 -6 11 -20 -20 -20 -20 -20 -20 -20 -20 -20 10 -20 -20 -20 -20 -18 -11 -20 -20 3 -20 -20 -20 -20 -20 -20 -20 -20 9 14 -20 8 5 -17 -20 -20 -20 -20 -20 -20
-20 -20 -20 -10 -19 0 10 21 11 9 -20 -20 -20 -20 -18 -20 -20 -20 -20 -20 -20 -20 -20 -20 -20 -20 13 4 0 -7 -20 -20 -20 -20 -20 -20 -20 -20 16 -13 -2 8 -20 -20 -20 -20 -20 -20 -20
-20 4 -20 -20 -20 -8 6 25 1 -7 -20 -20 -20 -20 -20 -20 -20 -20 -20 -20 13 -20 -20 -20 -0 -20 -20 -20 -14 -16 -19 -19 -20 -20 -20 -20 -20 -20 -20 -9 -20 -20 -20 -20 -20 -20 -20 -20 -20
-1 -13 -20 -17 -5 10 7 27 9 14 -20 -20 -20 -20 -20 -20 -20 -20 4 -20 -20 -20 -14 -20 -11 -20 -20 -20 -20 -15 12 8 -20 -20 -20 -20 -20 -20 -20 -18 -6 -20 -20 -20 -20 -20 -20 -20 -20
-19 -20 -17 -20 2 5 7 16 -11 -3 -11 -20 -20 -20 -20 -20 -20 -20 -20 -20 -20 -19 -17 -20 -20 -20 -20 -20 -20 -18 9 7 -20 -20 -20 -20 -20 -20 -20 -20 -20 -20 -20 -20 -20 -20 -20 -20 -20
9 -20 -20 -19 -13 -6 11 -9 -20 -15 -4 -11 -20 -20 -20 -20 -20 -2 -20 9 -20 -20 3 -18 -20 -20 -20 -20 -20 -20 -20 -20 -20 -20 -20 -20 -20 -20 -20 -20 -20 -20 -20 -20 -20 -20 -20 -20 -20
-8 -20 -20 -20 -10 -13 -15 -20 0 7 -2 -20 -20 -20 -20 -20 -20 -20 -20 -20 -13 -20 -20 -20 -20 -20 -20 -20 -20 -20 -20 -20 -20 -20 -20 -20 -20 -20 -20 -20 -20 -20 -20 -20 -20 -20 -20 -20 -20
-20 -12 -16 -1 -20 -20 -20 -20 -4 10 4 -20 -20 -20 -20 -20 -20 -20 -20 15 -20 -20 -20 -20 -20 -20 -20 -20 -20 -20 -20 -20 -20 -20 -20 -20 -20 -20 -20 -20 -20 -20 -20 -20 -20 -20 -20 -20 -20
-20 12 -20 2 -20 -1 -20 -20 -3 4 -12 -14 -20 -20 -20 -20 -20 -20 -20 -20 -20 -20 -19 -20 -20 -20 -20 -20 -20 -20 -20 -20 -20 -20 -20 -20 -20 -20 -20 -20 -20 -20 -20 -20 -20 -20 -20 -20 -20
8 14 19 -20 2 -20 -2 -20 -20 -0 9 -18 -20 -20 -20 -20 -20 -20 -20 -20 -20 -20 -20 -20 -20 -20 -20 -20 -20 -20 -20 -20 -20 -20 -20 -20 -20 -20 -20 -20 -20 -20 -20 -20 -20 -20 -20 -20 -20
-2 5 -20 -20 -20 -20 -20 -20 -20 -19 4 -14 -20 -20 -20 -20 -20 -20 -20 -20 -20 -20 -20 -20 -20 -20 -20 -20 -20 -20 -20 -20 -20 -20 -20 -20 -20 -20 -20 -20 -20 -20 -20 -20 -20 -20 -20 -20 -20
-19 -20 -20 -20 -20 -20 -20 -20 -20 -20 -15 -19 -20 -20 -20 -20 -20 -20 -20 -20 -20 -7 -20 15 -20 -20 -20 -20 -20 -20 -20 -20 -20 -20 -20 -20 -20 -20 -20 -20 -20 -20 -20 -20 -20 -20 -20 -20 -20
-20 -20 -20 -20 -20 2 -20 -20 -20 -20 -20 -20 -20 -20 -20 -20 -20 -20 -20 -20 -20 -20 -20 28 7 -20 -20 -20 -20 -20 -20 -20 -20 -20 -20 -20 -20 -20 -20 -20 -20 -20 -20 -20 -20 -20 -20 -20 -20
12 -13 -20 -20 -20 -20 -20 -20 -20 -20 -20 -20 -20 -19 -20 -20 -20 -20 -20 -20 -20 -20 -20 -20 -20 -10 4 -20 -20 -20 -15 -20 -20 -20 -20 -20 -20 -20 -20 -20 -20 -20 -20 -20 -20 -20 -20 -20 -20
-20 -20 -18 -19 3 1 -1 -8 -20 -20 -20 -20 -20 -20 -20 -20 -20 -20 -20 -20 -20 -20 -20 -20 -20 -20 -20 0 -20 -6 -20 -20 -20 -20 -20 -20 -20 -13 -20 -20 -20 -20 -20 -20 -20 -20 -20 -20 -20
-0 -20 -20 15 19 -20 -9 -18 -20 -20 -20 -20 -20 -20 -20 -20 -20 -20 -20 -20 -20 -20 -20 -20 -20 -20 -20 -20 -20 -20 -20 -20 -20 -20 -20 -20 -20 -20 -20 -20 -20 -20 -20 -20 -6 -19 -20 -20 -20
-15 2 20 16 -20 -20 -19 -20 -20 -20 -20 -20 -20 -20 -20 -20 -20 -20 -20 -20 -20 -20 -20 -20 -20 -20 -20 -20 -20 -20 -20 -20 -20 -20 -20 -20 -20 -20 -20 -20 -18 -20 -20 -20 -20 -18 -20 -20 -20
-13 -3 22 11 0 5 -20 -20 -20 -20 -20 -20 -20 -20 -20 -20 -20 -20 -20 -20 -20 -20 -20 -20 -20 -20 -20 -20 -20 -20 -20 -20 -20 -20 -20 -20 -20 -20 -20 -20 -20 -20 -6 -8 -20 -6 -20 -18 -20
6 17 -10 14 18 -18 -20 -20 -20 -20 -20 -20 -20 -20 -20 -20 -20 -20 -20 -20 -20 -20 -20 -20 -20 -20 -20 -20 -20 -20 -20 -20 -20 -20 -20 -20 -20 -20 -20 -20 -13 11 6 17 21 15 -3 -14 -5
3 -20 -18 -8 -2 -20 -20 -17 -20 -20 -20 -20 -20 -20 -20 -20 -20 -20 -20 -20 -20 -20 -20 -20 -20 -20 -20 -20 -20 -20 -20 -20 -20 -20 -20 -20 -20 -20 -20 -20 12 12 13 9 11 17 16 16 18
6 -20 -20 -20 -20 -20 -20 -20 -20 -20 -20 -20 -20 -20 -20 -20 -20 -20 -20 -20 -20 -20 -20 -20 -20 -20 -20 -20 -20 -20 -20 -20 -20 -20 -20 -20 -20 -20 -20 0 -2 0 12 4 -0 17 20 17 17
-20 -20 -20 -20 -8 13 -20 -20 -20 -20 -20 -20 -20 -20 -20 -20 -20 -20 -20 -20 -20 -20 -20 -20 -20 -20 -20 -20 -20 -20 -20 -20 -20 -20 -20 -20 -20 -20 -20 -20 -8 5 -0 13 12 5 9 10 12
-18 -20 -5 19 18 19 18 -8 -20 -20 -20 -20 -20 -20 -20 -20 -20 -20 -20 -20 -20 -20 -20 -20 -20 -20 -20 -20 -20 -20 -20 -20 -20 -20 -20 -20 -20 -20 -20 -20 -20 -20 -6 6 6 6 14 22 17
-20 -11 -10 -3 0 -20 -4 -20 -20 -20 -20 -20 -20 -20 -20 -20 -20 -20 -20 -20 -20 -20 -20 -20 -20 -20 -20 -20 -20 -20 -20 -20 -20 -20 -20 -20 -20 -20 -20 -20 -20 -20 -17 2 -20 -20 -20 -18 10

GFSSGP_prec_radar_081.txt.gz
Reflectivity
-9 14 -20 -20 -20 -20 -20 -20 -20 -20 -20 -20 -20 -20 -20 -20 -20 -20 -20 -20 -20 -20 -2 0 -6 -20 -20 -20 -20 -20 -20 -20 20 -16 5 5 8 -6 -0 12 -8 -8 -2 -20 -20 -20 -20 -20 -20
-20 -8 6 -20 -20 -20 -20 -20 -20 -20 -20 -20 -20 -20 -20 -20 -20 -20 -20 -20 -20 -20 -17 -20 -20 -20 -7 -20 -20 -20 -20 -20 16 13 13 -7 -20 -20 -20 -20 10 10 -20 -20 -20 -20 -20 -20 -20
-20 4 -4 -6 -20 -20 -20 -20 -20 -20 -20 -20 -20 -20 -20 -20 -20 -20 -20 -20 -20 -20 -20 -20 -20 -12 -20 -20 -20 -20 -20 -20 -20 1 15 -13 -11 -20 -20 -20 -20 12 -20 -20 -20 -20 -20 -20 -20
-20 17 16 5 -20 -20 -20 -20 -20 -20 -20 -20 -20 -20 -20 -20 -20 -20 -20 -20 -20 -20 -20 13 -20 -20 -20 -20 -7 10 -20 -20 -20 -20 9 3 -20 -20 -20 -20 -20 17 -20 -20 -20 -20 -20 -20 -20
-20 -12 29 -8 -20 -20 -16 -17 -20 -20 -20 -20 -20 -20 -20 -20 -20 -20 -20 -20 -20 -20 -20 -20 -1 -20 -20 -20 -5 -20 -20 -20 -20 -20 -20 -20 -20 -20 -20 -20 -20 -18 -20 -20 -20 -20 -20 -20 -20
-20 -20 16 -5 -20 -20 0 10 -20 -20 -20 -20 -20 -20 -20 -20 -20 -20 -20 -20 -20 -20 -20 -5 6 -20 -20 -20 -20 -20 -20 -20 -20 -20 -20 -20 -14 9 -14 -20 -14 -20 -20 -20 -20 -20 -20 -20 -20
-20 -20 -13 -20 -9 -10 -10 28 13 -20 -20 -20 -20 -20 -20 -19 -20 -20 -20 -20 -20 -20 -20 -20 -18 -20 -20 -20 -20 -20 -20 -20 -20 -20 -20 -20 -3 -13 -20 -20 -20 -20 -20 -20 -20 -20 -20 -20 -20
-18 -20 -20 -17 4 -0 5 30 23 3 -20 -20 -20 -20 -20 -20 -20 25 -20 -19 5 -20 -20 -20 -20 -4 -20 -20 -20 -20 -20 -20 -20 -20 -20 -20 -20 -1 -20 -20 -6 -20 -20 -20 -20 -20 -20 -20 -20
18 -20 -20 -20 -4 -15 9 14 15 1 -18 -17 -20 -20 -20 -20 10 19 -2 7 12 -20 -20 -20 -20 -17 -20 -20 -20 -19 -20 -20 -20 -20 -20 -20 -20 -20 -20 -20 -20 -20 -20 -20 -20 -20 -20 -20 -20
17 -20 -20 -20 4 7 15 22 -4 31 18 -19 -20 -20 -20 -20 -16 1 -9 -20 5 -9 -20 -20 -20 -20 -20 -20 -20 -20 -20 -20 -20 -20 -20 -20 -20 -20 -20 -17 -20 -20 -20 -20 -20 -20 -20 -20 -20
-20 -20 -20 -20 -6 1 11 22 3 15 7 -17 -20 -20 -20 -20 -20 -20 -20 -20 -20 4 -20 -20 -20 -20 -20 -20 -20 -20 -20 -20 -20 -20 -20 -20 -20 -20 -20 -20 -20 -20 -20 -20 -20 -20 -20 -20 -20
-17 -20 -20 -20 -20 -12 7 -17 -3 7 -1 -19 2 -18 -20 -20 -20 -20 -20 28 18 -20 -20 -20 -20 -20 -20 -20 -20 -20 -20 -20 -20 -20 -20 -20 -20 -20 -20 -20 -20 -20 -20 -20 -20 -20 -20 -20 -20
-20 -20 -20 -20 -20 -20 -17 -20 -11 -15 -18 2 0 -20 -20 -20 -20 -20 -20 -20 -20 -20 -6 -20 -20 -20 -20 -20 -20 -20 -20 -20 -20 -20 -20 -20 -20 -20 -20 -20 -20 -20 -20 -20 -20 -20 -20 -20 -20
-20 -19 -20 -20 -20 -20 -20 -19 -20 -20 -1 12 -20 -18 -20 4 -20 -5 -20 -20 -20 8 -20 -20 -20 -20 -20 -20 -20 -20 -20 -20 -20 -20 -20 -20 -20 -20 -20 -20 -20 -20 -20 -20 -20 -20 -20 -20 -20
-20 -20 -20 -10 -20 -20 -20 -20 -20 -20 2 4 -0 -20 -20 -20 -20 -20 -20 -20 -20 3 14 -20 -20 -20 -20 -20 -20 -20 -20 -20 -20 -20 -20 -20 -20 -20 -20 -20 -20 -20 -20 -20 -20 -20 -20 -20 -20
13 12 8 -20 -20 -20 -20 -20 -20 -18 2 7 -20 -20 -20 -20 -20 -20 -20 -20 -20 -20 -20 32 -20 -20 -20 -20 -20 -20 -20 -20 -20 -20 -20 -20 -20 -20 -20 -20 -20 -20 -20 -20 -20 -20 -20 -20 -20
4 -20 -20 -20 -20 -20 -20 -20 -20 -10 4 -4 -18 -18 -20 -20 -20 -20 -20 -20 -20 -20 -20 -20 -20 -7 -20 -20 -20 -20 -20 -20 -20 -20 -20 -20 -20 -20 -20 -20 -20 -20 -20 -20 -20 -20 -20 -20 -20
-20 -20 -20 -20 -20 -20 -20 -20 -20 -19 -9 2 -20 1 -20 -20 -19 -20 -20 -20 -20 -20 -20 -20 9 -20 -20 -20 -20 -20 -20 -20 -20 -20 -20 -20 -20 -20 -20 -20 -20 -20 -20 -20 -20 -20 -20 -20 -20
-20 -20 -20 -20 -20 -20 -20 -20 -20 -20 -20 -20 -20 -18 -6 -20 -20 -14 -20 -20 -20 -20 -20 -20 -20 -20 -20 -20 -20 -20 -20 -20 -20 -20 -20 -20 -20 -20 -20 -20 -20 -20 -20 -20 -20 -20 -20 -20 -20
-0 -16 -20 -20 -20 -20 -20 -20 -20 -20 -20 -20 -20 -20 -5 -20 -20 -20 -7 -16 -20 -20 -20 -20 -20 -20 -12 -20 -20 -20 -20 -20 -20 -20 -20 -20 -20 -20 -20 -20 -20 -20 -20 -20 -20 -20 -20 -20 -20
35 -15 -20 -20 -20 -20 -20 -18 -20 -20 -20 -20 -20 -20 -20 -2 -20 -20 -20 -19 -20 -20 -20 -20 -20 -20 -20 8 -11 -20 0 -20 -20 -20 -20 -15 -20 -20 -20 -20 -20 -20 -20 -20 -20 -20 -20 -20 -20
8 -20 -20 -14 -3 -16 -20 -13 -20 -20 -20 -20 -20 -20 -20 -20 -20 -20 -20 -20 -20 -20 -20 -20 -20 -20 -20 -20 -20 -10 -20 -9 -20 -20 21 25 1 -13 -20 -20 -20 -20 -20 -20 -20 -20 -20 -20 -20
13 5 -20 9 15 -20 -20 -20 -20 -20 -20 -20 -20 -20 -20 -20 -20 -20 -20 -20 -20 -20 -20 -5 1 -6 -20 -20 -20 -20 -20 -20 -20 -20 -20 -20 -20 -20 -20 29 -20 -20 -20 -20 -20 -20 -20 -20 -20
-11 10 3 18 1 16 -20 -20 -20 -20 -20 -20 -20 -20 -20 -20 -20 -20 -20 -20 -20 -20 -20 -20 -20 -20 -20 -20 -20 -20 -20 -20 -20 -20 -20 -20 -20 -20 -20 -20 -20 -20 -20 2 8 14 15 10 15
7 34 20 21 18 -20 -20 -20 -20 -20 -20 -20 -20 -20 -20 -20 -20 -20 -20 -20 -20 -20 -20 -20 -20 -20 -20 -20 -20 -20 -20 -20 -20 -20 -20 -20 -16 -20 -20 -20 -13 -6 7 12 11 15 16 26 21
36 18 1 -1 -19 -20 -20 -20 -20 -20 -20 -20 -20 -20 -20 -20 -20 -20 -20 -20 -20 -20 -20 -20 -20 -20 -20 -20 -20 -20 -20 -20 -20 -20 -20 -20 -20 -20 -20 10 11 6 5 5 11 8 8 13 15
30 -1 -20 11 -20 -20 -20 -20 -20 -20 -20 -20 -20 -20 -20 -20 -20 -20 -20 -20 -20 -20 -20 -20 -20 -20 -20 -20 -20 -20 -20 -20 -20 -20 -20 -20 -20 -20 -20 -20 -20 -13 7 5 3 -18 -2 -20 -20
18 8 -20 -20 -20 -20 -20 -20 -20 -20 -20 -20 -20 -20 -20 -20 -20 -20 -20 -18 -20 -20 -20 -20 -20 -20 -20 -20 -20 -20 -20 -20 -20 -20 -20 -20 -20 -20 -20 -20 -20 -20 -20 -17 10 7 8 -20 -8
29 -8 -20 -20 -20 -20 -20 -12 -20 -20 -20 -20 -20 -20 -20 -20 -20 -20 -20 -20 -16 -20 -20 -20 -20 -20 -20 -20 -20 -20 -20 -20 -20 -20 -20 -20 -20 -20 -20 -20 -20 -20 -20 -20 -19 2 -6 -20 -20
18 -7 -20 -20 -20 -20 -20 -20 -20 -1 -20 -20 -20 -20 -20 -20 -20 -20 -20 -20 -20 -20 -20 -20 -20 -20 -20 -20 -20 -20 -20 -20 -20 -20 -20 -20 -20 -20 -20 -20 -20 -20 -20 -20 -20 -3 -17 10 -7

GFSSGP_prec_radar_084.txt.gz
Reflectivity
-20 15 -0 -9 -20 -20 -20 -20 -20 -20 -20 -20 -20 -20 -20 -20 -20 -20 -20 -20 -20 -12 -7 -20 -20 -20 -18 -20 -18 2 -20 -20 -20 -20 -5 3 6 -11 13 -16 11 -20 -20 -20 -20 -20 -20 -20 -20
-20 -20 20 18 -17 -20 -20 -20 -20 -20 -20 -20 -20 -20 -20 -20 -20 -20 -20 -20 -20 -20 -20 -20 -20 -13 -20 -20 -20 -20 -20 -20 -14 -6 -20 -3 -20 -20 13 -11 19 -20 -20 -20 -20 -20 -20 -20 -20
-20 -11 -14 -19 -4 -20 -20 -20 -20 -20 -20 -20 -20 -20 -20 -20 -20 -20 -20 -20 -20 -15 -20 -18 6 -16 -19 -10 -20 -20 -20 -20 -2 -11 9 -20 -20 -20 -10 -11 14 -20 -20 -20 -20 -20 -20 -20 -20
-20 -19 -10 -20 -20 -20 -20 -20 -20 -20 -20 -20 -20 -20 -20 -20 -20 -20 -20 -20 -20 -5 -20 -20 12 -9 -20 -20 -20 -20 -20 -20 -20 -20 5 -20 -20 -20 -20 -20 10 -20 -20 -20 -20 -20 -20 -20 -20
-20 -7 -5 9 -20 -20 -14 -19 -20 -20 -20 -20 -20 -20 -20 -20 -20 -20 -20 -20 -20 -20 -20 -20 8 -8 -15 -20 -20 -20 -20 -20 -20 -8 -19 -20 -20 -17 -20 -20 -17 -20 -20 -20 -20 -20 -20 -20 -20
-0 -1 -14 -16 -20 -20 8 16 -20 -20 -20 -20 -20 -20 -20 -20 -20 -20 -20 -20 -20 -20 -20 -4 14 -20 8 2 -20 -20 -20 -20 -20 -20 -20 -20 -3 -14 -20 -20 -20 -20 -20 -20 -20 -20 -20 -20 -20
-20 -20 -20 -20 -20 -3 11 25 11 -12 -20 -20 -20 -20 17 14 -20 -20 -20 -20 -20 -20 -17 1 -20 -20 -10 -20 -20 -20 -20 -20 -20 -20 -20 -20 -7 -9 -20 4 -20 -20 -20 -20 -20 -20 -20 -20 -20
-14 -20 -20 -20 -20 -2 6 33 -10 -16 -20 -20 -20 -20 -20 -20 -20 -20 -20 -20 -20 -20 -20 -1 -19 -14 6 8 -20 -20 -20 -20 -20 -20 -20 -15 2 2 -20 -20 -20 -20 -20 -20 -20 -20 -20 -20 -20
22 -20 -20 -20 -20 -12 18 34 6 -20 -20 -20 -20 -20 -20 -20 -20 -20 -13 -7 -8 -3 -20 -20 -15 2 -18 -19 -20 -20 -20 -20 -20 -20 -20 -20 -20 -20 -20 -20 -20 -20 -20 -20 -20 -20 -20 -20 -20
-3 -20 -20 -20 -20 -3 22 11 19 25 8 -20 -20 -20 7 -18 -20 -20 -12 10 -9 13 -15 -20 -20 -20 -20 -12 -20 -20 -20 -20 -20 -20 -20 -20 -20 -20 -20 -20 -20 -20 -20 -20 -20 -20 -20 -20 -20
-19 -20 -20 -20 -20 -17 21 -0 14 27 -5 -20 -20 -20 -20 -8 -14 6 15 5 10 -20 -20 -20 -20 -20 -20 -16 -20 -20 -20 -20 -20 -20 -20 -20 -20 -20 -20 -20 -20 -20 -20 -20 -20 -20 -20 -20 -20
11 -1 -20 -20 -20 -20 -4 1 23 23 18 -17 -20 8 28 -20 -20 -20 -19 -4 -20 -17 -20 -20 -20 -20 -20 -20 -20 -20 -20 -20 -20 -20 -20 -20 -20 -20 -20 -20 -20 -20 -20 -20 -20 -20 -20 -20 -20
-3 3 -1 -20 -20 -20 -19 -19 3 7 22 33 -20 -20 -20 -20 -20 -20 22 0 -20 -20 -20 -20 -15 -20 -20 -20 -20 -20 -20 -20 -20 -20 -20 -20 -20 -20 -20 -20 -20 -20 -20 -20 -20 -20 -20 -20 -20
-20 -20 -20 -17 -20 -20 -20 -20 -17 -0 25 22 7 -20 -20 -20 -20 7 -10 26 -19 -20 -20 -20 -20 -20 -20 -20 -20 -20 -20 -20 -20 -20 -20 -20 -20 -20 -20 -20 -20 -20 -20 -20 -20 -20 -20 -20 -20
-20 -20 19 -20 -20 -20 -20 -20 -20 3 20 -3 5 -20 -20 -20 -20 -20 -20 -11 -11 -20 -7 -20 -20 -20 -20 -4 -20 -20 -20 -20 -20 -20 -20 -20 -20 -20 -20 -20 -20 -20 -20 -20 -20 -20 -20 -20 -20
-20 -20 -9 -20 -20 -20 -20 -20 -20 -0 8 -5 26 0 -20 -20 -20 -20 -20 -20 -18 -20 -20 -20 -20 -20 -20 -20 -20 -20 -20 -20 -20 -20 -20 -20 -20 -20 -20 -20 -20 -20 -20 -20 -20 -20 -20 -20 -20
-20 -20 -14 -20 -20 -20 -20 -20 -20 -2 1 -18 -5 3 -12 -20 -20 -20 -20 -20 -20 -20 -12 -20 -20 -20 -20 -20 -20 -20 -20 -20 -20 -20 -20 -20 -20 -20 -20 -20 -20 -20 -20 -20 -20 -20 -20 -20 -20
-20 -11 -20 -20 -20 -20 -20 -20 -20 -20 -14 -12 -5 4 -12 -20 -19 14 -16 -20 -20 -20 -20 -20 -20 -1 5 -20 -20 -20 -20 -20 -20 -20 -20 -20 -20 -20 -20 -20 -20 -20 -20 -20 -20 -20 -20 -20 -20
-20 -19 -20 -20 -20 9 -20 -20 -20 -20 -20 -20 -20 -17 -13 -20 -20 3 8 -20 -20 -20 -20 -20 -20 -20 -20 -20 -20 -20 -20 -20 -20 -20 -20 -20 -20 -20 -20 -20 -20 -20 -20 -20 -20 -20 -20 -20 -20
5 -17 -20 -20 -20 -20 -20 -20 -20 -20 -20 -20 -20 -20 -20 -20 -20 -20 -7 -5 -20 -20 -20 -20 -20 -20 9 -20 -20 -20 -20 -20 -20 -20 -20 -20 -20 -20 -20 -20 -20 -20 -20 -20 -20 -20 -20 -20 -20
24 -20 -20 -20 -20 -20 -20 -20 -20 -20 -20 -20 -20 -20 -20 -20 -20 -20 -20 -20 -20 -20 -20 -20 -20 -20 -20 5 -13 -20 -17 -20 -20 -20 -20 1 -20 4 -20 -20 -20 -20 -20 -20 -20 -20 -20 -20 -20
33 -18 -20 -20 -20 -20 -20 -20 -20 -20 -20 -20 -20 -20 -20 -20 -20 -20 -20 -20 -20 -20 -20 -20 -20 -20 -20 -11 -20 -20 -20 -20 -20 -20 21 -20 -15 -19 -20 -20 -20 -20 -20 -20 -20 -20 -20 -20 -20
33 1 8 -20 1 -20 -20 -6 -20 -20 -20 -20 -20 -20 -20 -20 -20 -20 -20 -20 -20 -20 -20 -20 -2 -7 -20 -20 -20 -18 -20 -20 -19 -20 -20 -20 -20 -20 -20 23 -19 -20 -20 -20 7 -20 -20 -20 -19
14 28 11 7 12 -5 -20 -20 -20 -20 -20 -20 -20 -20 -20 -20 -20 -20 -20 -20 -20 -20 -20 -20 -20 -20 -6 -18 -20 -20 -20 -20 12 2 -20 -20 -20 -20 -20 -20 -20 -20 -20 -20 -20 -20 -20 5 11
15 25 24 21 22 2 -20 -20 -20 -20 -20 -20 -20 -20 -20 -20 -20 -20 -20 -20 -20 -20 -20 -20 -20 -20 -20 -20 -20 -20 -20 -20 -20 -20 -20 -20 -20 -20 -20 -20 -20 -20 -20 -15 2 -1 -3 -1 -15
3 26 15 -16 -20 -20 -20 -20 -20 -20 -20 -20 -20 -20 -20 -20 -20 -20 -20 -20 -20 -20 -20 -20 -20 -20 -20 -20 -20 -20 -20 -20 -20 -20 -20 -20 -20 -20 -20 -20 -20 -20 3 -5 10 8 -4 -3 11
3 4 29 -5 -20 -20 -20 -20 -20 -20 -20 -20 -20 -20 -20 -20 -20 -20 -20 -20 -20 -20 -20 -20 -20 -20 -20 -20 -20 -20 -20 -20 -20 -20 -20 -20 -20 -20 -20 -20 -20 -20 -20 -20 -2 -12 -13 -7 -18
-4 -10 17 11 -20 -20 -20 -20 -20 -20 -20 -20 -20 -20 -20 -20 -20 -20 -20 -20 -20 -20 -20 -20 -20 -20 -20 -20 -20 -20 -20 -20 -20 -20 -20 -20 -20 -20 -20 -20 -20 -20 -20 -16 3 -4 -20 13 0
-14 9 23 -18 -20 -20 -20 -20 -20 -20 -20 -20 -20 -20 -20 -20 -20 -20 -20 -20 -20 -20 -20 -20 -20 -20 -20 -20 -20 -20 -20 -20 -20 -20 -20 -20 -20 -20 -20 -20 -20 -20 -20 -20 -20 -20 -16 12 8
5 26 -12 -20 -20 -20 -20 -20 -20 -20 -20 -20 -20 -20 -20 -20 -20 -20 -20 -20 -20 -20 -20 -20 -20 -20 -20 -20 -20 -20 -20 -20 -20 -20 -20 -20 -20 -20 -20 -20 -20 -20 -20 -20 -20 -20 -19 -16 9

GFSSGP_prec_radar_090.txt.gz
Reflectivity
-20 -20 -20 -20 -20 -20 -20 -20 -20 -20 -20 -20 -20 -20 -20 -20 -20 -20 -20 -20 -20 -11 -15 -16 3 -4 -20 -20 -20 -20 -20 -17 -18 -20 -20 -20 -20 -18 -20 -20 -20 -20 -20 -20 -20 -20 -20 -20 -20
-20 -20 -20 -20 -20 -20 -20 -20 -20 -20 -20 -20 -20 -20 -20 -20 -20 -13 -12 -20 -20 -10 -11 -20 2 -20 -11 -4 -10 -1 -1 4 0 -14 -20 -3 -7 -19 -19 -20 -20 -20 -20 -20 -20 -20 -20 -20 -20
-20 -20 -20 -20 -20 -20 -20 -20 -20 -20 -20 -20 -20 -20 -20 -20 -20 -20 -20 1 -20 -20 6 -20 2 -9 1 4 -12 4 5 -13 -20 -20 -13 3 2 -16 6 -20 -20 -20 -20 -20 -20 -20 -2 -20 -20
-20 -19 -7 3 -20 -20 -20 -20 -20 -10 -20 -20 -20 -20 -20 -20 -20 -20 -20 11 -20 -20 -15 15 4 13 7 8 -2 9 5 -20 -20 3 13 1 5 -1 11 -20 -20 -20 -20 -20 -20 -4 -20 -20 -20
13 -19 -2 -20 -20 -20 -20 -20 9 1 -20 -20 -20 -20 -20 -20 -20 -20 -17 -13 -20 -7 1 13 9 -1 -7 -19 -20 -20 5 -3 6 13 -19 -20 2 -3 -3 -20 -20 -20 -20 -20 -20 -20 -20 -20 -20
-20 -6 -17 -12 -20 -20 -20 -20 17 -3 -20 -20 -20 -20 -20 -20 -20 -18 -10 3 -14 -20 10 11 2 7 -2 -20 -20 -20 -0 -20 17 7 -20 -20 -20 -15 3 -20 -20 -20 -20 -20 -20 -20 -20 -20 -20
-18 -20 -20 -20 -20 -20 -20 -20 -16 -20 -20 -20 -20 -20 -20 14 -3 18 11 -18 -12 -10 -20 14 8 -2 -13 -13 -18 -20 -20 -20 13 -14 -20 -20 -20 -20 5 -20 -20 -20 -20 -20 -20 -20 -20 -20 -20
-17 -20 -20 -20 -20 -20 -20 -20 -20 -6 -20 -20 -20 -20 -20 -20 14 21 15 7 9 -3 6 10 16 13 -15 -19 -20 -20 -20 -20 -20 -20 -20 -20 -20 -20 12 -20 -20 -20 -20 -20 -20 -20 -20 -20 -20
-7 10 -20 -20 -20 -20 -20 -20 -20 1 -15 -20 -20 -20 -20 -20 -10 22 18 23 13 2 -6 -20 4 -15 -16 10 -20 -20 -20 -20 -20 -20 -20 -20 -20 -20 2 -20 -20 -20 -20 -20 -20 -20 -20 -20 -20
12 -13 -20 -20 -20 -20 -20 -20 -20 7 -1 -17 -20 -20 -20 -6 28 7 20 13 2 9 10 6 -1 -19 -6 7 -20 -20 -20 -20 -20 -20 -20 -20 -20 -20 -11 -20 -20 -20 -20 -20 -20 -20 -20 -20 -20
-20 -20 -20 -20 -20 -20 -20 -20 -20 -11 24 3 -20 -20 -20 10 20 10 1 4 12 10 -6 18 14 -20 10 -9 -20 -20 -20 -20 -20 -20 -20 -20 -20 -20 -20 -20 -20 -20 -20 -20 -20 -20 -20 -20 -20
2 9 -20 -20 -20 -20 -20 -20 -20 -20 1 -15 -18 -20 -20 -20 -14 9 15 2 8 -8 -10 3 14 0 2 -15 -20 -20 -20 -20 -20 -20 -20 -20 -20 -20 -20 -20 -20 -20 -20 -20 -20 -20 -20 -20 -20
-20 5 7 -20 -20 -20 -20 -20 -20 -20 -17 19 -13 -20 -20 -20 9 17 -1 31 7 7 5 -20 -5 -8 6 -10 -20 -20 -20 -20 -20 -20 -20 -20 -20 -20 -20 -20 -20 -20 -20 -20 -20 -20 -20 -20 -20
-18 -11 -8 -3 -20 -20 -20 -20 -20 -20 -1 23 26 -20 -20 -20 -20 17 -4 -14 33 23 -14 23 1 2 11 -19 -20 -20 -20 -20 -20 -20 -20 -20 -20 -20 -20 -20 -20 -20 -20 -20 -20 -20 -20 -20 -20
9 -20 6 -12 -20 -20 -20 -20 -20 -20 -20 -12 5 -14 -17 -20 -20 -20 -20 -20 -9 22 5 30 30 0 -9 -2 1 -20 -20 -20 -20 -20 -20 -20 -20 -20 -20 -20 -20 -20 -20 -20 -20 -20 -20 -20 -20
13 9 -10 -20 -20 -20 -20 -20 -20 -20 -16 9 35 11 -1 -20 -18 -20 -17 -20 -20 31 0 23 30 4 1 4 -19 -11 -20 -20 -20 -20 -20 -20 -20 -20 -20 -20 -20 -20 -20 -20 -20 -20 -20 -20 -20
9 11 -3 -20 -20 -20 -20 -20 -20 -20 -18 -1 19 31 15 -17 -8 -15 -4 17 -20 -2 27 -10 16 12 -3 -20 -20 -20 -20 -20 -20 -20 -20 -20 -20 -20 -20 -20 -20 -20 -20 -20 -20 -20 -20 -20 -20
-7 -20 -16 -20 -20 8 -20 -20 -20 -20 -20 -20 -13 31 18 -19 -19 8 -8 -10 19 1 21 36 -15 -8 10 -14 -20 -20 -20 -20 -20 -20 -20 -20 -20 -20 -20 -20 -20 -20 -20 -20 -20 -20 -20 -20 -20
24 -20 -20 -20 -20 -16 -20 -20 -20 -20 -20 -20 -19 6 26 -13 6 7 19 -10 -9 -16 -20 34 26 1 -16 -19 -20 -20 -20 -20 -20 -20 -20 -20 -20 -20 -20 -20 -20 -20 -20 -20 -20 -20 -20 -20 -20
35 -10 -20 -20 -20 -15 -20 -20 -20 -20 -20 -20 -20 -5 11 26 18 7 20 16 9 6 6 9 33 29 22 1 14 22 -6 -9 -16 -20 -20 -20 -20 -20 -20 -20 -20 -20 -20 -20 -20 -20 -20 -20 -20
33 6 -20 -14 -13 -20 -20 -20 -20 -20 -20 -20 -20 -15 8 -10 -10 -20 -9 1 23 12 24 13 9 3 11 18 19 -9 8 1 -9 10 6 -20 -20 -20 -20 -20 -20 -20 -20 -20 -20 -20 -20 -20 -20
24 20 9 8 -8 -12 -20 -19 -20 -20 -20 -20 -20 -20 -19 5 4 -20 -20 -20 -5 -5 -1 7 10 5 -19 -14 29 -0 25 1 -11 -20 -20 -20 -14 -20 -20 -20 -20 -20 -17 -20 5 -20 -20 -20 -20
27 28 10 -7 -15 -20 -20 -20 -20 -20 -20 -20 -20 -20 -20 -20 3 -9 -20 -20 -20 -20 -20 -20 -16 -20 -16 -20 -20 -20 -14 -19 -20 -20 -20 -19 -20 -20 28 -20 -20 -11 27 28 -18 -17 -19 -18 -20
19 34 26 11 -11 -17 -20 -20 -20 -20 -20 -20 -20 -20 -20 -20 -20 5 -3 -20 -20 -20 -20 -20 -20 -20 -20 -10 1 -17 -18 17 -20 -6 -20 -20 -20 7 5 32 -10 15 1 11 15 -19 -20 -20 -20
27 26 23 12 11 -20 -20 -20 -20 -20 -20 -20 -20 -20 -20 -20 -20 -20 -13 -20 -20 -20 -20 -20 -20 -20 -20 -20 -20 -11 6 3 -9 -20 0 -20 -20 -20 -20 2 -20 -20 -20 -20 -20 -20 -20 -20 -20
21 3 19 5 -20 -20 -20 -20 -20 -20 -20 -20 -20 -20 -20 -20 -20 -20 -20 -20 -20 -20 -20 -20 -20 -20 -20 16 -20 -20 -20 -13 -10 -20 -20 -20 -20 -20 -20 -20 -20 -20 -20 -20 -20 -20 -20 -20 -20
20 12 20 -13 -20 -20 -20 -20 -20 -20 -20 -20 -20 -20 -20 -20 -20 -20 -20 -20 -20 -20 -20 -20 -20 -20 -20 -20 -20 -20 -20 -20 -20 -20 -20 -20 -20 -20 -20 -20 -20 -20 -20 -20 -20 -20 -20 -20 -20
12 11 -20 -18 -20 -20 -20 -20 -20 -19 -20 -20 -20 -20 -20 -20 -20 -20 -20 -20 -20 -20 -20 -20 -20 -20 -20 -20 -20 -20 -20 -20 -20 -20 -20 -20 -20 -20 -20 -20 -20 -20 -20 -20 -20 -20 -20 -2 -15
14 -11 -20 -19 -20 -20 -20 -20 -20 -20 -20 -20 -20 -20 -20 -20 -20 -20 -20 -20 -20 -20 -20 -20 -20 -20 -20 -20 -20 -20 -20 -20 -20 -20 -20 -20 -20 -20 -20 -20 -4 -8 -20 -20 10 -19 -20 -16 -14
7 -2 -20 -20 -20 -20 -20 -20 -20 -20 -20 -20 -20 -20 -20 -20 -20 -20 -20 -20 -20 -20 -20 -20 -20 -20 -20 -20 -20 -20 -20 -20 -20 -20 -20 -20 -20 -20 -20 -20 -20 -20 -20 -20 -20 -20 -10 -1 2

GFSSGP_prec_radar_096.txt.gz
Reflectivity
22 -20 -20 -20 -20 -20 -20 -20 -20 -20 -20 -20 -20 -20 -20 -20 -20 -20 -20 -20 -20 -20 -4 -20 6 -20 -20 -17 0 1 3 1 12 -20 -20 -20 -20 -20 -20 -20 -20 -20 -20 -20 -20 -20 -20 -20 -20
3 -20 -20 -20 -20 -20 -20 -20 -20 -20 -20 -20 -20 -20 -20 -20 -20 -20 -20 -20 -20 -20 -16 -18 8 6 2 5 2 4 5 -0 6 -9 -20 -20 -20 -20 -20 -20 -20 -20 -20 -20 -20 -20 -20 -20 -20
22 -20 -20 -20 -20 -20 -20 -20 -20 -20 -20 -20 -20 -20 -20 -20 -20 -20 -20 -20 -20 -20 -18 -17 6 -7 6 1 -0 -2 -0 -14 1 -3 -5 1 -20 -20 -20 -20 -20 -20 -20 -20 -14 -20 -20 -20 -20
26 23 -20 -20 -20 -20 -20 -20 -20 -20 -20 -20 -20 -20 -20 -20 -20 -20 -20 -20 -20 -20 -20 -19 9 7 8 -20 -20 -20 14 -20 -20 -20 -0 9 -2 -20 -20 -20 -20 -20 -1 1 -13 -20 5 13 -7
19 23 24 -14 -20 -20 -20 -20 -20 -20 -20 -20 -20 -20 -20 -20 -17 -20 -20 -20 -20 -20 -12 -4 -6 11 9 -20 -20 -20 -20 -20 -20 -6 -12 -15 -14 -20 -20 -20 -20 -20 4 11 2 9 -6 -20 -16
21 22 16 4 -20 -20 -20 -20 -20 -20 -20 -20 -20 -20 -20 -3 -4 -8 -11 -6 1 -10 -10 12 -16 -8 -20 -2 -20 -20 -20 -2 4 9 -2 -2 -9 -20 -20 -20 -20 -20 2 -0 -10 -20 -20 -13 -1
-10 14 -14 -20 -20 -20 -20 -20 -20 -20 -20 -20 -20 -20 -20 -20 8 11 -1 -1 2 8 6 12 14 4 5 -20 -2 -20 4 13 14 9 11 -15 -20 -20 -20 -20 -20 -20 -16 -10 -20 -20 -20 -20 -20
-10 22 13 6 -18 -20 -20 -20 -20 -20 -20 -20 -20 -20 -20 -20 7 -20 21 14 -17 11 12 14 12 16 15 6 -9 -20 3 -20 9 -2 -20 -20 6 -20 -20 -20 -20 -20 -20 -20 -20 -20 -20 -20 -20
-14 15 -3 -4 6 -20 -20 -20 -20 -20 -20 -20 -20 -20 -20 -20 3 10 -10 5 14 11 0 -20 16 17 16 10 4 -20 -20 -20 -20 -20 -20 -20 -7 9 -15 -20 -20 -20 -20 -20 -20 -20 -20 -20 -20
20 -20 -20 -20 -20 -20 -20 -20 -20 -20 -20 -20 -20 -20 -20 -20 -1 10 -6 -13 10 11 11 -6 17 16 17 14 4 10 -17 -20 -20 -20 -20 -20 -20 0 -5 -3 -20 -20 -20 -20 -20 -20 -20 -20 -20
-17 -20 -20 -20 -20 -20 9 -20 -20 -20 -20 -20 -20 -20 -20 -20 -20 1 26 -13 11 1 15 16 16 13 16 4 11 10 -20 -20 -20 -20 -20 -20 -20 -6 2 8 1 -6 -8 -20 -20 -20 -20 -20 -20
-20 -20 -20 -20 -20 -5 -20 -20 -20 -20 -20 -20 -20 -20 -20 -20 -20 -20 0 17 -20 -3 2 -12 -17 -1 9 2 15 8 -20 -20 -20 -20 -20 -20 -20 -20 -20 -5 -1 -16 -20 -20 -20 -20 -20 -20 -20
8 -20 -20 -20 -20 -20 -20 -16 -20 -20 -20 -20 -20 -20 -20 -20 -20 -20 -15 -20 31 7 -6 -20 4 15 9 13 10 7 -20 -20 -20 -20 -20 -20 -20 -20 -20 -20 -3 -13 -20 -20 -20 -20 -20 -20 -20
-12 16 -1 -20 1 -20 -20 -13 -17 -20 -20 -20 -20 -20 -20 -20 -20 -20 -20 -20 -20 -19 -13 23 9 -17 -12 15 8 8 -19 -20 -20 -20 -20 -20 -20 -20 -20 -20 -20 -15 -5 -20 -20 -20 -20 -20 -20
-7 6 -11 -12 15 15 -20 -9 -17 -20 -20 -20 -20 -20 -20 -20 -20 -20 -20 -20 -20 -20 33 -10 -1 -20 -20 -4 17 12 -20 -20 -20 -20 -20 -20 -20 -20 -20 -20 -20 -20 -20 -20 -20 -20 -20 -20 -20
-2 21 20 -20 -20 15 6 -20 1 -15 -20 -20 -20 -20 -19 -15 -20 -20 -20 -20 -20 20 -9 -17 -10 1 -19 10 -20 12 -4 -20 -20 -20 -20 -20 -20 -20 -20 -20 -20 -20 -20 -20 -20 -20 -20 -20 -20
8 23 16 -20 -20 -18 4 -20 -6 -14 -20 -20 -20 -20 -20 -20 -20 -20 -20 1 -20 -20 -20 -19 12 28 -8 -20 -20 19 -11 -20 -20 -20 -20 -20 -20 -20 -20 -20 -20 -20 -20 -20 -20 -20 -20 -20 -20
6 -2 -17 -20 -20 -3 -20 -20 -20 -20 -20 -20 -20 -20 -20 -20 -20 -20 -20 -19 -16 -20 -20 -20 22 6 6 8 9 -5 -1 -11 -13 -20 -20 -20 -20 -20 -20 -20 -20 -20 -20 -20 -20 -20 -20 -20 -20
5 -20 3 -20 -20 -15 -9 5 -20 -20 -20 -20 -20 -20 -20 -20 -20 -20 -1 -20 -15 -20 -20 -20 -19 26 6 4 8 26 27 22 26 -5 -20 -20 -20 -20 -20 -20 -20 -20 -20 -20 -20 -20 -20 -20 -20
-7 -10 8 3 11 -15 9 3 -20 -20 -20 -20 -20 -20 -20 -20 -20 -20 -20 -11 -20 -20 -20 -15 21 30 26 -2 16 15 29 30 29 7 -10 -4 -20 -20 -20 -20 -20 -20 -20 -20 -20 -20 -20 -20 -20
15 14 7 12 1 -12 -4 13 7 -20 -20 -20 -20 -20 -20 -20 -20 -20 -19 -20 -19 -19 34 -6 -20 -14 28 30 28 10 28 28 30 28 17 2 -3 -20 -20 -20 -20 -20 -20 -20 -20 -20 -20 -20 -20
9 15 -19 9 14 12 -18 -18 -20 -20 -20 -20 -20 -20 -20 -20 -20 -20 -1 9 -8 -6 29 15 -13 -5 -6 15 27 30 18 29 33 33 28 23 29 2 3 6 -2 -20 -20 -20 -20 -20 -20 -20 -20
6 -20 -20 12 6 10 -4 13 -20 -20 -20 -20 -20 -20 -20 -20 -20 -20 -11 16 23 14 -0 -6 32 -9 -12 16 30 30 32 35 21 23 25 10 32 28 9 25 22 11 -16 -20 -18 28 -20 -20 -20
-17 -7 17 4 25 21 4 -8 -20 -20 -20 -20 -20 -20 -20 -20 -20 -15 15 8 27 27 -1 14 19 24 3 26 23 23 36 33 32 29 17 21 29 28 25 14 8 11 10 22 11 29 -5 -14 6
16 11 24 24 21 7 -20 12 -20 -20 -20 -20 -20 -20 -20 -20 -20 -19 19 17 18 12 27 8 13 -9 -9 -5 24 15 30 30 30 24 17 23 13 13 29 32 32 24 24 19 11 2 25 -2 -20
9 22 17 18 19 10 -8 -11 -20 -20 -20 -20 -20 -20 -20 -20 -20 -20 -16 7 11 0 6 9 -2 -3 -2 -17 -12 0 -1 4 11 16 23 14 20 26 27 31 17 13 31 9 12 -18 -18 -20 -20
18 13 8 -18 -20 -1 -20 -20 -18 -20 -20 -20 -20 -20 -20 -20 -20 -20 -20 10 2 -5 -20 -13 8 -20 -20 -20 -10 -20 -18 3 -1 12 12 26 11 13 6 -3 -11 -3 -18 -12 -8 12 -20 -20 -20
18 -15 -14 -16 6 1 -16 -17 -20 -20 -20 -20 -20 -20 -20 -20 -20 -20 -20 -18 -15 -20 -20 -20 -12 -20 -10 -20 -20 -20 -3 -19 1 -9 -2 6 -0 -20 -20 -20 -20 -20 -20 -20 -20 6 -20 -9 -13
13 -2 -19 3 -8 11 -8 -20 -20 -20 -20 -20 -20 -20 -20 -20 -20 -20 -20 -20 -20 -17 -20 -20 -20 -20 -20 -18 -20 -20 -20 -20 -1 -15 -20 -20 -20 -20 -20 -20 -20 -20 -20 -20 -20 -20 -20 -5 -20
3 -20 -9 7 -19 -20 -19 -20 -20 -20 -20 -20 -20 -20 -20 -20 -20 -20 -20 -20 -20 -20 -20 -20 -20 -20 -20 -20 -20 -20 -20 -20 -20 -20 -20 -20 -20 -20 -20 -20 -20 -20 -20 -20 -20 -20 -14 -18 -20